STARLINK-1292, 45394

Orbit data source: Space-Track

STARLINK-1292, 45394 is a payload satellite owned by SpaceX/Seattle (US) in LEO that was launched on Wed, 18 Mar 2020 UTC via an FALCON 9 launch vehicle from the Air Force Eastern Test Range (AFETR). Payloads include a variety of satellites, spacecraft, and rockets equipped with specific instruments for various scientific and technological missions. These include communications satellites like Starlink; space stations such as the ISS; scientific satellites like the Hubble; Earth observation satellites from companies like Planet Labs, Umbra, and HawkEye 360; GPS; miniature CubeSats for education and research; and military/defense satellites.

Loading next visibility...
STARLINK-1292 details
Identifier
45394, 2020-019AL
Orbit
LEO
Last TLE update10 hours ago
Origin
Flag of USSpaceX/Seattle (US)
ManufacturerSpaceX/Seattle
MissionOperational Commercial Communications
Bus & MotorSTARLINK, Unknown motor
Mass260 kg wet, ~248 kg dry
Launch date (UTC)
2020-03-18 (5 years ago)
Launch vehicle
FALCON 9
Launch site
Air Force Eastern Test Range (AFETR)
Object type
Payload
Rocket body
Debris
Shape & HBRBox + 1 Pan, 8.86 m
Radar Cross Section13.562 m², Large (>1 m²)

Expand to show TLE details & history

TLE from 10 hours ago
0 STARLINK-1292
1 45394U 20019AL  25044.43660051  .00008922  00000-0  61727-3 0  9994
2 45394  53.0539  94.0443 0001479 106.8976 253.2175 15.06391099271079
Epoch: 2025-02-13T10:28Z
Definitive object data (Epoch: 2025-02-13T10:28:42.284Z)
Latitude-0.00002°
Longitude153.15536°
Altitude548.414 km
Speed7.589 km/s
True Right ascension06h 16m 10s
True Declination0° 00' 00"
Sunlit
Object was in full shadow at TLE epoch
Visualization TLE readout
Latitude17.849°
Longitude165.28591°
Altitude547.437 km
Speed7.591 km/s
Apparent Right ascension08h 36m 47s
Apparent Declination-10° 50' 43"
Sunlit
Object is in full shadow
Visualization observer readout
Local Sidereal Time22:43:51
Azimuth52.869° ENE
Elevation-49.568°
Doppler factor1
Orbital elements
Apogee altitude548.534 km
Perigee altitude546.485 km
Semi-major axis6,925.647 km
Eccentricity0.0001479
Inclination53.0539°
RAAN94.0443°
Arg. of periapsis106.8976°
True anomaly253.20127°
Mean anomaly253.2175°
Eccentric anomaly253.20939°
Mean motion3.76576 °/min
BSTAR0.00061727
Orbital period95.6 mins
Loading maneuver chart data...
Loading historical data...
Loading historical data...
Loading historical data...
Loading historical data...
Loading historical data...
Loading historical data...
Loading historical data...

STARLINK-1292 Visibility forecast

Observer location: undefined°, undefined

Span
Click to sort rows by Start time (UTC) header in descending order
Start Az.
Max El. time (UTC)
Max El. Az.
Max El.
End time (UTC)
End Az.
8 mins2025-02-14 05:44:53.437Z222.194° SW2025-02-14 05:48:53.437Z138.258° SSE43.835°2025-02-14 05:52:53.437Z53.587° ENE
5 mins2025-02-14 07:26:53.437Z298.399° NW2025-02-14 07:28:53.437Z339.167° N21.668°2025-02-14 07:31:53.437Z28.916° NE
4 mins2025-02-14 10:48:53.437Z352.277° N2025-02-14 10:49:53.437Z10.326° NNE17.779°2025-02-14 10:52:53.437Z61.42° ENE
6 mins2025-02-14 12:27:53.437Z316.538° NNW2025-02-14 12:30:53.437Z87.712° E41.992°2025-02-14 12:33:53.437Z122.541° SE
|